San Jose, Costa Rica

5:55 PM CST on October 01, 2016 (GMT -0600)
Juan Santamaria International

Weather History for MROC - October, 2013

Change the Weather History Date:

Monday, October 28, 2013

  Actual Average Record
Temperature  
Mean Temperature 72 °F -  
Max Temperature 80 °F 78 °F 86 °F (2006)
Min Temperature 65 °F 64 °F 62 °F (2003)
Cooling Degree Days 8    
Growing Degree Days 22 (Base 50)    
Moisture  
Dew Point 68 °F    
Average Humidity 91    
Maximum Humidity 100    
Minimum Humidity 65    
Precipitation  
Precipitation 0.94 in - - ()
Sea Level Pressure  
Sea Level Pressure 29.96 in    
Wind  
Wind Speed 4 mph ()    
Max Wind Speed 14 mph    
Max Gust Speed -    
Visibility 4.9 miles    
Events Fog , Rain , Thunderstorm    
Averages and records for this station are not official NWS values.
T = Trace of Precipitation, MM = Missing Value Source: Averaged Metar Reports

Daily Weather History Graph

Daily Weather History Graph

Search for Another Location

Airport or City:

Trip Planner

Search our weather history database for the weather conditions in past years. The results will help you decide how hot, cold, wet, or windy it might be!

Date:

Astronomy

Oct. 28, 2013 Rise Set
Actual Time 5:26 AM CST 5:14 PM CST
Civil Twilight 5:05 AM CST 5:35 PM CST
Nautical Twilight 4:40 AM CST 6:00 PM CST
Astronomical Twilight 4:15 AM CST 6:25 PM CST
Moon 12:22 AM CST (10/28) 12:57 PM CST (10/28)
Length of Visible Light 12h 30m
Length of Day
11h 47m
Waning Crescent, 33% of the Moon is Illuminated
Oct 28
Waning Crescent
Nov 3
New
Nov 9
First Quarter
Nov 17
Full
Nov 25
Last Quarter

Hourly Weather History & Observations

Time (CST) Temp. Heat Index Dew Point Humidity Pressure Visibility Wind Dir Wind Speed Gust Speed Precip Events Conditions
12:00 AM 68 °F - 67 °F 97% 29.84 in 12 mi Calm Calm - -   Scattered Clouds
12:00 AM 68.0 °F - 68.0 °F 100% 30.02 in 6.2 mi Calm Calm - N/A   Partly Cloudy
1:00 AM 68.0 °F - 68.0 °F 100% 29.99 in 6.2 mi North 3.5 mph - N/A   Partly Cloudy
2:00 AM 68.0 °F - 66.2 °F 94% 29.98 in 0.3 mi South 3.5 mph - N/A Fog Fog
2:25 AM 66.2 °F - 66.2 °F 100% 29.97 in 0.3 mi East 2.3 mph - N/A Fog Fog
3:00 AM 67 °F - 67 °F 98% 29.85 in 1 mi 2.3 mph - -   Mist
3:00 AM 66.2 °F - 66.2 °F 100% 29.97 in 0.6 mi Variable 2.3 mph - N/A   Scattered Clouds
4:00 AM 66.2 °F - 66.2 °F 100% 29.97 in 6.2 mi SE 2.3 mph - N/A Fog Patches of Fog
5:00 AM 66.2 °F - 66.2 °F 100% 29.97 in 6.2 mi East 2.3 mph - N/A Fog Patches of Fog
6:00 AM 84.2 °F 103.5 °F 84.2 °F 100% 29.97 in 6.2 mi NNE 3.5 mph - N/A   Scattered Clouds
7:00 AM 71.6 °F - 64.4 °F 78% 30.02 in 6.2 mi Calm Calm - N/A   Scattered Clouds
8:00 AM 75.2 °F - 66.2 °F 73% 30.03 in 6.2 mi WSW 4.6 mph - N/A   Scattered Clouds
9:00 AM 75 °F - 67 °F 69% 29.87 in 12 mi West 6.9 mph - -   Partly Cloudy
9:00 AM 75.2 °F - 66.2 °F 73% 30.05 in 6.2 mi West 6.9 mph - N/A   Scattered Clouds
10:00 AM 77.0 °F - 68.0 °F 74% 30.04 in 6.2 mi West 9.2 mph - N/A   Scattered Clouds
11:00 AM 78.8 °F - 69.8 °F 74% 30.02 in 6.2 mi SW 9.2 mph - N/A   Scattered Clouds
12:00 PM 79 °F - 69 °F 65% 29.82 in 12 mi WSW 10.4 mph - -   Mostly Cloudy
12:00 PM 78.8 °F - 69.8 °F 74% 30.00 in 6.2 mi WSW 10.4 mph - N/A   Scattered Clouds
1:00 PM 75.2 °F - 68.0 °F 78% 29.97 in 6.2 mi West 11.5 mph - N/A Rain , Thunderstorm Thunderstorms and Rain
2:00 PM 73.4 °F - 71.6 °F 94% 2.99 in 5.0 mi WSW 5.8 mph - N/A Rain Light Rain
3:00 PM 71 °F - 71 °F 99% 29.80 in 3 mi WSW 11.5 mph - - Rain Light Rain
3:00 PM 71.6 °F - 71.6 °F 100% - 3.1 mi WSW 11.5 mph - N/A Rain Light Rain
3:30 PM 69.8 °F - 69.8 °F 100% 29.96 in 0.9 mi SW 11.5 mph - N/A Rain Light Rain
4:00 PM 68.0 °F - - N/A% 29.97 in 2.5 mi SSW 13.8 mph - N/A   Drizzle
4:10 PM - - 68.0 °F N/A% - 2.5 mi SSW 12.7 mph - N/A Rain , Thunderstorm Thunderstorms and Rain
4:20 PM 68.0 °F - 68.0 °F 100% - 0.6 mi SSW 9.2 mph - N/A Rain , Thunderstorm Heavy Thunderstorms and Rain
5:00 PM 68.0 °F - 68.0 °F 100% - 1.2 mi West 6.9 mph - N/A Rain Light Rain
6:00 PM 68 °F - 68 °F 100% 29.85 in 2 mi North 6.9 mph - - Rain Rain
6:00 PM 68.0 °F - 68.0 °F 100% 3.00 in 1.9 mi North 6.9 mph - N/A Rain Rain
7:00 PM 68.0 °F - 68.0 °F 100% 30.03 in 5.0 mi NNW 4.6 mph - N/A Fog , Rain Light Rain
8:00 PM 68.0 °F - 68.0 °F 100% 30.03 in 5.0 mi ESE 4.6 mph - N/A Fog Patches of Fog
9:00 PM 68 °F - 67 °F 96% 29.87 in 9 mi East 3.5 mph - -   Scattered Clouds
9:00 PM 68.0 °F - 68.0 °F 100% 30.03 in 6.2 mi East 3.5 mph - N/A   Mostly Cloudy
10:00 PM 68.0 °F - 66.2 °F 94% 30.02 in 6.2 mi NE 5.8 mph - N/A   Mostly Cloudy
11:00 PM 69.8 °F - 64.4 °F 83% 30.02 in - ENE 5.8 mph - N/A   Clear